Weather History for KUES - July, 2013

Change the Weather History Date:

Monday, July 1, 2013

  Actual Average Record
Temperature  
Mean Temperature 64 °F -  
Max Temperature 75 °F 81 °F 98 °F (1963)
Min Temperature 53 °F 59 °F 45 °F (1965)
Degree Days  
Heating Degree Days 1    
Growing Degree Days 14 (Base 50)    
Moisture  
Dew Point 46 °F    
Average Humidity 55    
Maximum Humidity 77    
Minimum Humidity 34    
Precipitation  
Precipitation 0.00 in - - ()
Sea Level Pressure  
Sea Level Pressure 30.10 in    
Wind  
Wind Speed 5 mph (NNE)    
Max Wind Speed 18 mph    
Max Gust Speed 22 mph    
Visibility 10 miles    
Events      
Averages and records for this station are not official NWS values.
T = Trace of Precipitation, MM = Missing Value Source: NWS Daily Summary

Daily Weather History Graph

Daily Weather History Graph

Search for Another Location

Airport or City:

Trip Planner

Search our weather history database for the weather conditions in past years. The results will help you decide how hot, cold, wet, or windy it might be!

Date:

Astronomy

Jul. 01, 2013 Rise Set
Actual Time 5:17 AM CDT 8:35 PM CDT
Civil Twilight 4:42 AM CDT 9:11 PM CDT
Nautical Twilight 3:56 AM CDT 9:56 PM CDT
Astronomical Twilight 3:00 AM CDT 10:52 PM CDT
Moon 12:53 AM CDT (7/1) 2:45 PM CDT (7/1)
Length of Visible Light 16h 28m
Length of Day
15h 18m
Waning Crescent, 35% of the Moon is Illuminated
Jul 1
Waning Crescent
Jul 8
New
Jul 15
First Quarter
Jul 22
Full
Jul 29
Last Quarter

Hourly Weather History & Observations

Time (CDT) Temp. Dew Point Humidity Pressure Visibility Wind Dir Wind Speed Gust Speed Precip Events Conditions
12:15 AM 60.8 °F 42.8 °F 52% 30.05 in 10.0 mi NNE 3.5 mph - N/A   Clear
12:35 AM 60.8 °F 42.8 °F 52% 30.06 in 10.0 mi NNE 4.6 mph - N/A   Clear
12:55 AM 59.0 °F 42.8 °F 55% 30.06 in 10.0 mi NNE 4.6 mph - N/A   Clear
1:15 AM 59.0 °F 42.8 °F 55% 30.05 in 10.0 mi North 4.6 mph - N/A   Clear
1:35 AM 59.0 °F 42.8 °F 55% 30.05 in 10.0 mi NNE 4.6 mph - N/A   Clear
1:55 AM 59.0 °F 42.8 °F 55% 30.05 in 10.0 mi Calm Calm - N/A   Clear
2:15 AM 59.0 °F 42.8 °F 55% 30.05 in 10.0 mi Calm Calm - N/A   Clear
2:35 AM 57.2 °F 42.8 °F 59% 30.05 in 10.0 mi NNE 4.6 mph - N/A   Clear
2:55 AM 57.2 °F 42.8 °F 59% 30.05 in 10.0 mi NNE 4.6 mph - N/A   Clear
3:15 AM 57.2 °F 42.8 °F 59% 30.06 in 10.0 mi NE 3.5 mph - N/A   Clear
3:35 AM 55.4 °F 42.8 °F 63% 30.06 in 10.0 mi NE 4.6 mph - N/A   Clear
3:55 AM 55.4 °F 42.8 °F 63% 30.07 in 10.0 mi NNE 3.5 mph - N/A   Clear
4:15 AM 55.4 °F 42.8 °F 63% 30.08 in 10.0 mi Calm Calm - N/A   Clear
4:35 AM 55.4 °F 44.6 °F 67% 30.08 in 10.0 mi North 3.5 mph - N/A   Clear
4:55 AM 55.4 °F 44.6 °F 67% 30.08 in 10.0 mi Calm Calm - N/A   Clear
5:15 AM 53.6 °F 44.6 °F 72% 30.09 in 10.0 mi North 3.5 mph - N/A   Clear
5:35 AM 53.6 °F 46.4 °F 77% 30.09 in 10.0 mi North 3.5 mph - N/A   Clear
5:45 AM 55.4 °F 46.4 °F 72% 30.09 in 10.0 mi Calm Calm - N/A   Clear
6:45 AM 57.2 °F 48.2 °F 72% 30.10 in 10.0 mi North 5.8 mph - N/A   Clear
7:45 AM 62.6 °F 50.0 °F 63% 30.11 in 10.0 mi North 5.8 mph - N/A   Clear
8:45 AM 66.2 °F 51.8 °F 60% 30.12 in 10.0 mi NNE 9.2 mph - N/A   Clear
9:45 AM 68.0 °F 50.0 °F 52% 30.13 in 10.0 mi NNE 9.2 mph - N/A   Clear
10:45 AM 69.8 °F 48.2 °F 46% 30.13 in 10.0 mi NE 9.2 mph - N/A   Clear
11:45 AM 71.6 °F 46.4 °F 41% 30.13 in 10.0 mi NNE 6.9 mph - N/A   Clear
1:45 PM 75.2 °F 44.6 °F 34% 30.12 in 10.0 mi NE 18.4 mph - N/A   Clear
2:45 PM 73.4 °F 44.6 °F 36% 30.12 in 10.0 mi NE 17.3 mph - N/A   Clear
3:45 PM 75.2 °F 44.6 °F 34% 30.11 in 10.0 mi NE 16.1 mph 21.9 mph N/A   Clear
4:45 PM 75.2 °F 46.4 °F 36% 30.11 in 10.0 mi NNE 11.5 mph 20.7 mph N/A   Clear
5:45 PM 75.2 °F 46.4 °F 36% 30.11 in 10.0 mi NE 10.4 mph 16.1 mph N/A   Clear
6:45 PM 73.4 °F 46.4 °F 38% 30.11 in 10.0 mi NE 8.1 mph - N/A   Clear
7:45 PM 71.6 °F 46.4 °F 41% 30.11 in 10.0 mi NE 6.9 mph - N/A   Clear
8:45 PM 68.0 °F 48.2 °F 49% 30.11 in 10.0 mi NE 6.9 mph - N/A   Clear
9:35 PM 64.4 °F 46.4 °F 52% 30.12 in 10.0 mi NE 5.8 mph - N/A   Scattered Clouds
9:55 PM 64.4 °F 46.4 °F 52% 30.12 in 10.0 mi NE 3.5 mph - N/A   Scattered Clouds
10:15 PM 62.6 °F 46.4 °F 55% 30.12 in 10.0 mi ENE 6.9 mph - N/A   Scattered Clouds
10:35 PM 62.6 °F 46.4 °F 55% 30.13 in 10.0 mi Calm Calm - N/A   Clear
10:55 PM 60.8 °F 50.0 °F 68% 30.13 in 10.0 mi Calm Calm - N/A   Scattered Clouds
11:15 PM 60.8 °F 48.2 °F 63% 30.13 in 10.0 mi Calm Calm - N/A   Scattered Clouds
11:35 PM 60.8 °F 50.0 °F 68% 30.13 in 10.0 mi Calm Calm - N/A   Clear
11:55 PM 60.8 °F 48.2 °F 63% 30.13 in 10.0 mi Calm Calm - N/A   Clear